Fond du Lac, WI

10:48 PM CST on February 25, 2017 (GMT -0600)
Fond du Lac County

Weather History for KFLD - September, 2013

Change the Weather History Date:

Sunday, September 8, 2013

  Actual Average Record
Temperature  
Mean Temperature 66 °F -  
Max Temperature 71 °F 75 °F 95 °F (1959)
Min Temperature 60 °F 56 °F 39 °F (1949)
Growing Degree Days 16 (Base 50)    
Moisture  
Dew Point 58 °F    
Average Humidity 75    
Maximum Humidity 84    
Minimum Humidity 68    
Precipitation  
Precipitation 0.01 in - - ()
Sea Level Pressure  
Sea Level Pressure 30.06 in    
Wind  
Wind Speed 11 mph (ENE)    
Max Wind Speed 15 mph    
Max Gust Speed 22 mph    
Visibility 10 miles    
Events      
Averages and records for this station are not official NWS values.
T = Trace of Precipitation, MM = Missing Value Source: NWS Daily Summary

Daily Weather History Graph

Daily Weather History Graph

Search for Another Location

Airport or City:

Trip Planner

Search our weather history database for the weather conditions in past years. The results will help you decide how hot, cold, wet, or windy it might be!

Date:

Astronomy

Sep. 08, 2013 Rise Set
Actual Time 6:25 AM CDT 7:16 PM CDT
Civil Twilight 5:56 AM CDT 7:45 PM CDT
Nautical Twilight 5:21 AM CDT 8:20 PM CDT
Astronomical Twilight 4:45 AM CDT 8:56 PM CDT
Moon 9:51 AM CDT (9/8) 8:43 PM CDT (9/8)
Length of Visible Light 13h 49m
Length of Day
12h 50m
Waxing Crescent, 11% of the Moon is Illuminated
Sep 8
Waxing Crescent
Sep 12
First Quarter
Sep 19
Full
Sep 26
Last Quarter
Oct 4
New

Hourly Weather History & Observations

Time (CDT) Temp. Dew Point Humidity Pressure Visibility Wind Dir Wind Speed Gust Speed Precip Events Conditions
12:53 AM 66.0 °F 59.0 °F 78% 30.06 in 10.0 mi NNE 12.7 mph - N/A   Overcast
1:38 AM 66.2 °F 57.2 °F 73% 30.07 in 10.0 mi NE 13.8 mph - N/A   Overcast
1:53 AM 64.9 °F 57.0 °F 75% 30.05 in 10.0 mi NE 10.4 mph - N/A   Overcast
2:53 AM 64.0 °F 57.0 °F 78% 30.06 in 10.0 mi NE 13.8 mph 21.9 mph N/A   Overcast
3:24 AM 62.6 °F 55.4 °F 77% 30.07 in 10.0 mi NE 15.0 mph 20.7 mph N/A   Overcast
3:53 AM 63.0 °F 55.9 °F 78% 30.07 in 10.0 mi ENE 10.4 mph - N/A   Overcast
4:32 AM 62.6 °F 55.4 °F 77% 30.08 in 10.0 mi NE 8.1 mph - N/A   Overcast
4:53 AM 62.1 °F 55.9 °F 80% 30.07 in 10.0 mi NE 8.1 mph - N/A   Overcast
5:24 AM 60.8 °F 55.4 °F 82% 30.08 in 10.0 mi NE 10.4 mph - N/A   Scattered Clouds
5:49 AM 62.6 °F 55.4 °F 77% 30.08 in 10.0 mi NE 11.5 mph - N/A   Mostly Cloudy
5:53 AM 62.1 °F 55.9 °F 80% 30.07 in 10.0 mi NE 9.2 mph - N/A   Mostly Cloudy
6:46 AM 60.8 °F 55.4 °F 82% 30.09 in 10.0 mi ENE 10.4 mph - N/A   Scattered Clouds
6:53 AM 61.0 °F 55.9 °F 83% 30.08 in 10.0 mi ENE 11.5 mph - N/A   Partly Cloudy
7:27 AM 62.6 °F 55.4 °F 77% 30.09 in 10.0 mi NE 10.4 mph - N/A   Mostly Cloudy
7:53 AM 62.1 °F 57.0 °F 84% 30.08 in 10.0 mi NE 9.2 mph - N/A   Scattered Clouds
8:35 AM 64.4 °F 57.2 °F 77% 30.09 in 10.0 mi NE 9.2 mph - N/A   Mostly Cloudy
8:53 AM 64.9 °F 57.9 °F 78% 30.08 in 10.0 mi NE 10.4 mph - N/A   Overcast
9:27 AM 66.2 °F 57.2 °F 73% 30.09 in 10.0 mi ENE 9.2 mph - N/A   Overcast
9:53 AM 68.0 °F 59.0 °F 73% 30.09 in 10.0 mi ENE 9.2 mph - N/A   Overcast
10:53 AM 69.1 °F 59.0 °F 70% 30.10 in 10.0 mi ENE 15.0 mph - N/A   Overcast
11:31 AM 69.8 °F 60.8 °F 73% 30.10 in 10.0 mi ENE 12.7 mph - N/A   Overcast
11:42 AM 69.8 °F 60.8 °F 73% 30.11 in 10.0 mi ENE 9.2 mph - N/A   Overcast
11:53 AM 70.0 °F 60.1 °F 71% 30.10 in 10.0 mi East 10.4 mph - N/A   Overcast
12:53 PM 70.0 °F 60.1 °F 71% 30.09 in 10.0 mi East 6.9 mph - N/A   Overcast
1:53 PM 70.0 °F 60.1 °F 71% 30.08 in 10.0 mi East 9.2 mph - N/A   Overcast
2:53 PM 70.0 °F 59.0 °F 68% 30.06 in 10.0 mi ESE 8.1 mph - N/A   Overcast
3:38 PM 71.6 °F 60.8 °F 69% 30.05 in 10.0 mi East 9.2 mph - N/A   Overcast
3:53 PM 70.0 °F 60.1 °F 71% 30.05 in 10.0 mi ESE 11.5 mph - N/A   Overcast
4:25 PM 69.8 °F 60.8 °F 73% 30.04 in 10.0 mi ESE 8.1 mph - N/A   Mostly Cloudy
4:33 PM 71.6 °F 60.8 °F 69% 30.04 in 10.0 mi SE 11.5 mph 18.4 mph N/A   Scattered Clouds
4:53 PM 70.0 °F 60.1 °F 71% 30.03 in 10.0 mi ESE 8.1 mph - N/A   Partly Cloudy
5:53 PM 70.0 °F 59.0 °F 68% 30.01 in 10.0 mi SE 10.4 mph - N/A   Clear
6:53 PM 68.0 °F 59.0 °F 73% 30.00 in 10.0 mi SE 9.2 mph - N/A   Clear
7:53 PM 66.9 °F 59.0 °F 76% 30.00 in 10.0 mi East 4.6 mph - N/A   Partly Cloudy
8:53 PM 66.0 °F 59.0 °F 78% 30.02 in 10.0 mi ENE 9.2 mph - N/A   Clear
9:53 PM 64.9 °F 55.9 °F 73% 30.02 in 10.0 mi ENE 4.6 mph - N/A   Partly Cloudy
10:53 PM 63.0 °F 57.0 °F 81% 30.01 in 10.0 mi ESE 3.5 mph - 0.01 in   Overcast
11:53 PM 64.0 °F 57.9 °F 80% 29.99 in 10.0 mi South 5.8 mph - N/A   Overcast